User: anonymous   Login
Location: Prescott
(34.5400°N, 112.4680°W)
Time: 19:37:11
(UTC-07:00)
Language:

OTV 5 (USA 277) - Orbit

View from above orbital plane
View from above orbital plane
View from above satellite
View from above satellite

Ground track
Ground track

The orbit data is extracted from the following two-line orbital elements,

1 42932U 17052A   19073.74376627 0.00001000  00000-0  42678-5 0    03
2 42932  54.5148 314.2938 0003000 273.8123  86.1876 15.84513599    04
Epoch (UTC): 14 March 2019 17:51:01
Eccentricity: 0.0003000
inclination: 54.5148°
perigee height: 315 km
apogee height: 320 km
right ascension of ascending node: 314.2938°
argument of perigee: 273.8123°
revolutions per day: 15.84513599
mean anomaly at epoch: 86.1876°
orbit number at epoch: 0

The dashed part of the orbit path shows where the satellite is in the earth's shadow,  

DLR